[Iaude] MPEC L95: 2024 LH2 [a=1.12,e=0.60,i=45.4,H=20.7]

mpec at cfa.harvard.edu mpec at cfa.harvard.edu
Sun Jun 9 09:57:45 EDT 2024


M.P.E.C. 2024-L95                                  Issued 2024 June 9, 13:56 UT

     The Minor Planet Electronic Circulars contain information on unusual
         minor planets, routine data on comets and natural satellites,
         and occasional editorial announcements.  They are published
    on behalf of Division F of the International Astronomical Union by the
          Minor Planet Center, Smithsonian Astrophysical Observatory,
                          Cambridge, MA 02138, U.S.A.
			  
             Prepared using the Tamkin Foundation Computer Network

                              MPC at CFA.HARVARD.EDU
            URL https://www.minorplanetcenter.net/    ISSN 1523-6714

                                    2024 LH2                                    


Observations:
     K24L02H* C2024 06 06.44558017 27 36.162+43 22 38.05         22.43wXEL095F52
     K24L02H  C2024 06 06.45753717 27 32.703+43 22 09.10         21.96wXEL095F52
     K24L02H  C2024 06 06.46955617 27 29.198+43 21 39.93         22.19wXEL095F52
     K24L02H  C2024 06 06.56045217 27 03.017+43 17 58.29         21.93GVEL095F51
     K24L02H  C2024 06 06.56109617 27 02.833+43 17 56.83         22.05GVEL095F51
     K24L02H 0C2024 06 08.57038917 17 50.277+41 53 55.73         22.59GVEL095T12
     K24L02H 0C2024 06 08.58155517 17 47.231+41 53 26.32         22.11GVEL095T12
     K24L02H 3C2024 06 09.50178617 13 44.081+41 13 10.84         21.94GVEL095T14
     K24L02H 3C2024 06 09.50278517 13 43.824+41 13 08.23         22.01GVEL095T14
     K24L02H 3C2024 06 09.50376217 13 43.553+41 13 05.64         21.91GVEL095T14

Observer details:
F51 Pan-STARRS 1, Haleakala.  Observers J. Herman, T. Lowe, P. Minguez, A.
    Schultz, I. Smith.  Measurers K. Chambers, T. de Boer, J. Fairlamb, H.
    Gao, M. Huber, C.-C. Lin, E. Magnier, Y. Ramanjooloo, R. Wainscoat, R.
    Weryk.  1.8-m Ritchey-Chretien + CCD.
F52 Pan-STARRS 2, Haleakala.  Observers J. Herman, T. Lowe, P. Minguez, A.
    Schultz, I. Smith.  Measurers K. Chambers, T. de Boer, J. Fairlamb, H.
    Gao, M. Huber, C.-C. Lin, E. Magnier, Y. Ramanjooloo, R. Wainscoat, R.
    Weryk.  1.8-m Ritchey-Chretien + CCD.
T12 University of Hawaii 88-inch telescope, Maunakea.  Observers D. J. Tholen,
    J. K. Martin.  Measurer D. J. Tholen.  2.24-m f/10.1 reflector + 2112 x
    2112 pixels STA1600 10k CCD.
T14 Canada-France-Hawaii Telescope, Maunakea.  Observers R. Wainscoat, A.
    Acohido, H. Flewelling.  Measurers R. Weryk, R. Wainscoat.  3.6-m f/4.1
    reflector + CCD.

Orbital elements:
2024 LH2                                                 Earth MOID = 0.5329 AU
Epoch 2024 Mar. 31.0 TT = JDT 2460400.5                 MPC                     
M  30.71436              (2000.0)            P               Q                  
n   0.83044771     Peri.  356.29884     -0.20050418     -0.69506967             
a   1.1209714      Node   104.17914     +0.91614586     -0.38270386             
e   0.5992670      Incl.   45.40703     +0.34709485     +0.60861803             
P   1.19           H   20.78          G   0.15           U   9                  
Residuals in seconds of arc
240606 F52  0.0   0.1+    240606 F51  0.1+  0.1+    240609 T14  0.1+  0.0
240606 F52  0.1+  0.0     240608 T12  0.0   0.0     240609 T14  0.0   0.0
240606 F52  0.2-  0.1-    240608 T12  0.0   0.0
240606 F51  0.1+  0.1-    240609 T14  0.0   0.1-

Ephemeris:
2024 LH2                 a,e,i = 1.12, 0.60, 45                  q = 0.4492
Date    TT    R. A. (2000) Decl.     Delta      r    Elong.  Phase     V
2024 05 10    19 49 38.3 +51 39 12   0.7133  1.2137    87.8    56.2    22.5
...
2024 05 25    18 32 13.3 +49 36 32   0.6823  1.3383   102.5    47.6    22.4
...
2024 06 02    17 49 30.5 +46 06 06   0.6760  1.3976   109.9    43.0    22.3
...
2024 06 08    17 20 25.3 +42 18 20   0.6799  1.4390   114.8    39.8    22.3
2024 06 09    17 15 56.8 +41 35 15   0.6815  1.4456   115.5    39.3    22.3
2024 06 10    17 11 35.4 +40 50 54   0.6832  1.4522   116.1    38.9    22.3
...
2024 06 16    16 48 05.5 +36 02 27   0.6998  1.4902   119.4    36.4    22.4
...
2024 06 24    16 23 51.1 +29 03 09   0.7384  1.5369   121.5    34.3    22.5
...
2024 07 09    15 57 07.2 +16 13 34   0.8594  1.6132   118.4    33.7    22.9

A. U. Tomatic                (C) Copyright 2024 MPC           M.P.E.C. 2024-L95





More information about the Iaude mailing list